| time (UTC) | temp C | wind direction | speed KPH | gust KPH | rain 1hr cm | rain 24hr cm | rain mn cm | humidity % | barometer mb |
| 20260510174606 | 22 | 272 | 9.7 | 12.9 | 0.00 | 0.00 | 0.00 | 48 | 1017.2 |
| 20260510174106 | 22 | 245 | 4.8 | 11.3 | 0.00 | 0.00 | 0.00 | 52 | 1017.2 |
| 20260510173607 | 22 | 332 | 8.0 | 14.5 | 0.00 | 0.00 | 0.00 | 49 | 1017.3 |
| 20260510173107 | 21 | 311 | 14.5 | 22.5 | 0.00 | 0.00 | 0.00 | 49 | 1017.3 |
| 20260510172607 | 21 | 304 | 6.4 | 11.3 | 0.00 | 0.00 | 0.00 | 51 | 1017.5 |
| 20260510172107 | 21 | 248 | 8.0 | 14.5 | 0.00 | 0.00 | 0.00 | 51 | 1017.6 |
| 20260510171607 | 21 | 315 | 9.7 | 14.5 | 0.00 | 0.00 | 0.00 | 51 | 1017.6 |
| 20260510171106 | 21 | 337 | 6.4 | 9.7 | 0.00 | 0.00 | 0.00 | 50 | 1017.6 |
| 20260510170607 | 21 | 277 | 8.0 | 19.3 | 0.00 | 0.00 | 0.00 | 51 | 1017.7 |
| 20260510170106 | 21 | 293 | 9.7 | 12.9 | 0.00 | 0.00 | 0.00 | 52 | 1017.8 |
| 20260510165607 | 21 | 290 | 4.8 | 11.3 | 0.00 | 0.00 | 0.00 | 54 | 1017.6 |
| 20260510165106 | 21 | 217 | 8.0 | 14.5 | 0.00 | 0.00 | 0.00 | 55 | 1017.7 |
| 20260510164606 | 21 | 324 | 6.4 | 11.3 | 0.00 | 0.00 | 0.00 | 54 | 1017.7 |
| 20260510164109 | 21 | 299 | 9.7 | 17.7 | 0.00 | 0.00 | 0.00 | 53 | 1017.8 |
| 20260510163606 | 21 | 313 | 8.0 | 12.9 | 0.00 | 0.00 | 0.00 | 54 | 1017.9 |
| 20260510163106 | 21 | 297 | 9.7 | 14.5 | 0.00 | 0.00 | 0.00 | 53 | 1017.7 |
| 20260510162606 | 21 | 252 | 6.4 | 11.3 | 0.00 | 0.00 | 0.00 | 53 | 1017.7 |
| 20260510162107 | 20 | 302 | 4.8 | 11.3 | 0.00 | 0.00 | 0.00 | 53 | 1017.8 |
| 20260510161607 | 20 | 270 | 6.4 | 14.5 | 0.00 | 0.00 | 0.00 | 55 | 1017.8 |
| 20260510161107 | 21 | 289 | 6.4 | 8.0 | 0.00 | 0.00 | 0.00 | 53 | 1017.9 |
| 20260510160606 | 21 | 285 | 6.4 | 11.3 | 0.00 | 0.00 | 0.00 | 54 | 1017.7 |
| 20260510160107 | 21 | 281 | 4.8 | 11.3 | 0.00 | 0.00 | 0.00 | 53 | 1017.7 |
| 20260510155606 | 21 | 358 | 3.2 | 6.4 | 0.00 | 0.00 | 0.00 | 53 | 1017.6 |
| 20260510155106 | 20 | 301 | 6.4 | 11.3 | 0.00 | 0.00 | 0.00 | 52 | 1017.7 |
| 20260510154606 | 20 | 314 | 3.2 | 6.4 | 0.00 | 0.00 | 0.00 | 55 | 1017.7 |
| 20260510154106 | 20 | 289 | 9.7 | 17.7 | 0.00 | 0.00 | 0.00 | 53 | 1017.9 |
| 20260510153606 | 21 | 270 | 12.9 | 22.5 | 0.00 | 0.00 | 0.00 | 52 | 1017.8 |
| 20260510153107 | 21 | 273 | 6.4 | 9.7 | 0.00 | 0.00 | 0.00 | 53 | 1017.8 |
| 20260510152607 | 20 | 326 | 4.8 | 11.3 | 0.00 | 0.00 | 0.00 | 55 | 1017.8 |
| 20260510152107 | 20 | 326 | 6.4 | 9.7 | 0.00 | 0.00 | 0.00 | 53 | 1017.8 |
| 20260510151608 | 20 | 315 | 4.8 | 9.7 | 0.00 | 0.00 | 0.00 | 54 | 1017.8 |
| 20260510151106 | 20 | 314 | 9.7 | 16.1 | 0.00 | 0.00 | 0.00 | 54 | 1017.7 |
| 20260510150608 | 20 | 305 | 6.4 | 11.3 | 0.00 | 0.00 | 0.00 | 55 | 1017.8 |
| 20260510150106 | 20 | 257 | 6.4 | 9.7 | 0.00 | 0.00 | 0.00 | 56 | 1017.8 |
| 20260510145606 | 20 | 280 | 9.7 | 16.1 | 0.00 | 0.00 | 0.00 | 54 | 1017.8 |
| 20260510145106 | 19 | 341 | 9.7 | 17.7 | 0.00 | 0.00 | 0.00 | 54 | 1017.7 |
| 20260510144607 | 19 | 239 | 4.8 | 9.7 | 0.00 | 0.00 | 0.00 | 56 | 1017.7 |
| 20260510144106 | 19 | 276 | 8.0 | 16.1 | 0.00 | 0.00 | 0.00 | 54 | 1017.8 |
| 20260510143606 | 19 | 269 | 9.7 | 14.5 | 0.00 | 0.00 | 0.00 | 55 | 1017.8 |
| 20260510143106 | 19 | 277 | 9.7 | 16.1 | 0.00 | 0.00 | 0.00 | 55 | 1017.8 |
| 20260510142607 | 19 | 256 | 6.4 | 9.7 | 0.00 | 0.00 | 0.00 | 56 | 1017.9 |
| 20260510142106 | 19 | 284 | 6.4 | 12.9 | 0.00 | 0.00 | 0.00 | 57 | 1017.7 |
| 20260510141607 | 18 | 300 | 9.7 | 14.5 | 0.00 | 0.00 | 0.00 | 57 | 1017.7 |
| 20260510141106 | 18 | 278 | 8.0 | 12.9 | 0.00 | 0.00 | 0.00 | 57 | 1017.7 |
| 20260510140606 | 18 | 269 | 8.0 | 16.1 | 0.00 | 0.00 | 0.00 | 57 | 1017.6 |
| 20260510140106 | 18 | 294 | 8.0 | 11.3 | 0.00 | 0.00 | 0.00 | 60 | 1017.6 |
| 20260510135607 | 18 | 270 | 6.4 | 14.5 | 0.00 | 0.00 | 0.00 | 59 | 1017.5 |
| 20260510135106 | 18 | 321 | 6.4 | 9.7 | 0.00 | 0.00 | 0.00 | 61 | 1017.5 |
| 20260510134607 | 17 | 280 | 8.0 | 9.7 | 0.00 | 0.00 | 0.00 | 62 | 1017.3 |
| 20260510134106 | 17 | 304 | 8.0 | 14.5 | 0.00 | 0.00 | 0.00 | 63 | 1017.3 |
| 20260510133606 | 16 | 293 | 8.0 | 9.7 | 0.00 | 0.00 | 0.00 | 69 | 1017.2 |
| 20260510132620 | 15 | 273 | 3.2 | 4.8 | 0.00 | 0.00 | 0.00 | 77 | 1017.3 |
| 20260510132106 | 14 | 189 | 1.6 | 1.6 | 0.00 | 0.00 | 0.00 | 85 | 1017.3 |
| 20260510131607 | 13 | 63 | 0.0 | 1.6 | 0.00 | 0.00 | 0.00 | 89 | 1017.4 |
| 20260510130634 | 11 | 82 | 0.0 | 1.6 | 0.00 | 0.00 | 0.00 | 100 | 1017.4 |
| 20260510130106 | 11 | 7 | 0.0 | 0.0 | 0.00 | 0.00 | 0.00 | 100 | 1017.3 |
| 20260510125607 | 11 | 3 | 1.6 | 3.2 | 0.00 | 0.00 | 0.00 | 100 | 1017.3 |
| 20260510125107 | 10 | 329 | 0.0 | 0.0 | 0.00 | 0.00 | 0.00 | 100 | 1017.3 |
| 20260510124607 | 10 | 203 | 0.0 | 0.0 | 0.00 | 0.00 | 0.00 | 100 | 1017.3 |
| 20260510124106 | 9 | 351 | 0.0 | 0.0 | 0.00 | 0.00 | 0.00 | 100 | 1017.4 |
| 20260510123606 | 8 | 346 | 1.6 | 1.6 | 0.00 | 0.00 | 0.00 | 99 | 1017.3 |
| 20260510123107 | 8 | 0 | 0.0 | 0.0 | 0.00 | 0.00 | 0.00 | 99 | 1017.3 |
| 20260510122606 | 7 | 356 | 0.0 | 1.6 | 0.00 | 0.00 | 0.00 | 99 | 1017.2 |
| 20260510122106 | 7 | 354 | 0.0 | 1.6 | 0.00 | 0.00 | 0.00 | 99 | 1017.1 |
| 20260510121607 | 7 | 269 | 0.0 | 0.0 | 0.00 | 0.00 | 0.00 | 99 | 1017.1 |
| 20260510121106 | 6 | 316 | 0.0 | 1.6 | 0.00 | 0.00 | 0.00 | 99 | 1017.0 |
| 20260510120606 | 6 | 316 | 1.6 | 1.6 | 0.00 | 0.00 | 0.00 | 99 | 1017.0 |
| 20260510120106 | 5 | 301 | 0.0 | 0.0 | 0.00 | 0.00 | 0.00 | 99 | 1016.9 |
| 20260510115607 | 5 | 234 | 0.0 | 0.0 | 0.00 | 0.00 | 0.00 | 99 | 1016.8 |
| 20260510115106 | 5 | 274 | 0.0 | 0.0 | 0.00 | 0.00 | 0.00 | 99 | 1016.6 |
| 20260510114606 | 5 | 333 | 0.0 | 1.6 | 0.00 | 0.00 | 0.00 | 99 | 1016.6 |
| 20260510114107 | 4 | 323 | 0.0 | 0.0 | 0.00 | 0.00 | 0.00 | 99 | 1016.6 |
| 20260510113606 | 4 | 305 | 0.0 | 0.0 | 0.00 | 0.00 | 0.00 | 99 | 1016.5 |
| 20260510113107 | 4 | 0 | 0.0 | 0.0 | 0.00 | 0.00 | 0.00 | 99 | 1016.6 |
| 20260510112607 | 3 | 304 | 0.0 | 1.6 | 0.00 | 0.00 | 0.00 | 99 | 1016.6 |
| 20260510112107 | 3 | 327 | 0.0 | 0.0 | 0.00 | 0.00 | 0.00 | 99 | 1016.6 |
| 20260510111606 | 3 | 5 | 0.0 | 0.0 | 0.00 | 0.00 | 0.00 | 99 | 1016.6 |
| 20260510111106 | 3 | 0 | 0.0 | 0.0 | 0.00 | 0.00 | 0.00 | 99 | 1016.6 |
| 20260510110607 | 3 | 0 | 0.0 | 0.0 | 0.00 | 0.00 | 0.00 | 99 | 1016.5 |
| 20260510110106 | 3 | 0 | 0.0 | 0.0 | 0.00 | 0.00 | 0.00 | 99 | 1016.3 |
| 20260510105606 | 3 | 0 | 0.0 | 0.0 | 0.00 | 0.00 | 0.00 | 99 | 1016.2 |
| 20260510105107 | 3 | 340 | 0.0 | 0.0 | 0.00 | 0.00 | 0.00 | 99 | 1016.1 |
| 20260510104606 | 3 | 0 | 0.0 | 0.0 | 0.00 | 0.00 | 0.00 | 99 | 1016.0 |
| 20260510104107 | 3 | 0 | 0.0 | 0.0 | 0.00 | 0.00 | 0.00 | 99 | 1016.0 |
| 20260510103607 | 3 | 0 | 0.0 | 0.0 | 0.00 | 0.00 | 0.00 | 99 | 1016.0 |
| 20260510103107 | 3 | 263 | 0.0 | 0.0 | 0.00 | 0.00 | 0.00 | 99 | 1015.9 |
| 20260510102606 | 3 | 0 | 0.0 | 0.0 | 0.00 | 0.00 | 0.00 | 99 | 1015.9 |
| 20260510102106 | 3 | 270 | 0.0 | 0.0 | 0.00 | 0.00 | 0.00 | 99 | 1015.7 |
| 20260510101607 | 3 | 259 | 0.0 | 1.6 | 0.00 | 0.00 | 0.00 | 99 | 1015.7 |
| 20260510101106 | 3 | 0 | 0.0 | 0.0 | 0.00 | 0.00 | 0.00 | 99 | 1015.6 |
| 20260510100607 | 3 | 297 | 0.0 | 1.6 | 0.00 | 0.00 | 0.00 | 99 | 1015.7 |
| 20260510100106 | 3 | 184 | 0.0 | 0.0 | 0.00 | 0.00 | 0.00 | 99 | 1015.7 |
| 20260510095607 | 3 | 29 | 0.0 | 1.6 | 0.00 | 0.00 | 0.00 | 99 | 1015.6 |
| 20260510095106 | 3 | 0 | 0.0 | 0.0 | 0.00 | 0.00 | 0.00 | 99 | 1015.6 |
| 20260510094606 | 3 | 314 | 0.0 | 0.0 | 0.00 | 0.00 | 0.00 | 99 | 1015.6 |
| 20260510094106 | 4 | 332 | 1.6 | 1.6 | 0.00 | 0.00 | 0.00 | 99 | 1015.6 |
| 20260510093606 | 4 | 43 | 0.0 | 0.0 | 0.00 | 0.00 | 0.00 | 99 | 1015.6 |
| 20260510093107 | 4 | 310 | 1.6 | 1.6 | 0.00 | 0.00 | 0.00 | 99 | 1015.6 |
| 20260510092606 | 4 | 0 | 0.0 | 0.0 | 0.00 | 0.00 | 0.00 | 99 | 1015.6 |
| 20260510092106 | 4 | 0 | 0.0 | 0.0 | 0.00 | 0.00 | 0.00 | 99 | 1015.6 |
| 20260510091606 | 4 | 0 | 0.0 | 0.0 | 0.00 | 0.00 | 0.00 | 99 | 1015.5 |
| 20260510091108 | 4 | 356 | 0.0 | 0.0 | 0.00 | 0.00 | 0.00 | 99 | 1015.5 |
| 20260510090607 | 4 | 33 | 0.0 | 0.0 | 0.00 | 0.00 | 0.00 | 99 | 1015.4 |
| 20260510090106 | 4 | 0 | 0.0 | 0.0 | 0.00 | 0.00 | 0.00 | 99 | 1015.2 |
| 20260510085607 | 4 | 292 | 0.0 | 1.6 | 0.00 | 0.00 | 0.00 | 99 | 1015.2 |
| 20260510085106 | 4 | 0 | 0.0 | 0.0 | 0.00 | 0.00 | 0.00 | 99 | 1015.1 |
| 20260510084607 | 4 | 0 | 0.0 | 0.0 | 0.00 | 0.00 | 0.00 | 99 | 1015.1 |
| 20260510084106 | 4 | 0 | 0.0 | 0.0 | 0.00 | 0.00 | 0.00 | 99 | 1015.1 |
| 20260510083607 | 4 | 31 | 0.0 | 0.0 | 0.00 | 0.00 | 0.00 | 99 | 1015.0 |
| 20260510083106 | 5 | 0 | 0.0 | 0.0 | 0.00 | 0.00 | 0.00 | 99 | 1015.0 |
| 20260510082606 | 5 | 0 | 0.0 | 0.0 | 0.00 | 0.00 | 0.00 | 99 | 1014.9 |
| 20260510082106 | 5 | 0 | 0.0 | 0.0 | 0.00 | 0.00 | 0.00 | 99 | 1014.9 |
| 20260510081606 | 5 | 245 | 0.0 | 1.6 | 0.00 | 0.00 | 0.00 | 99 | 1014.9 |
| 20260510081107 | 4 | 247 | 0.0 | 1.6 | 0.00 | 0.00 | 0.00 | 100 | 1014.8 |
| 20260510080606 | 5 | 24 | 0.0 | 0.0 | 0.00 | 0.00 | 0.00 | 100 | 1014.9 |
| 20260510080106 | 5 | 0 | 0.0 | 0.0 | 0.00 | 0.00 | 0.00 | 99 | 1014.9 |
| 20260510075606 | 5 | 0 | 0.0 | 0.0 | 0.00 | 0.00 | 0.00 | 99 | 1014.8 |
| 20260510075106 | 5 | 346 | 0.0 | 1.6 | 0.00 | 0.00 | 0.00 | 99 | 1014.8 |
| 20260510074606 | 5 | 223 | 0.0 | 0.0 | 0.00 | 0.00 | 0.00 | 100 | 1014.8 |
| 20260510074106 | 5 | 297 | 0.0 | 0.0 | 0.00 | 0.00 | 0.00 | 100 | 1014.8 |
| 20260510073606 | 5 | 0 | 0.0 | 0.0 | 0.00 | 0.00 | 0.00 | 100 | 1014.7 |
| 20260510073106 | 5 | 0 | 0.0 | 0.0 | 0.00 | 0.00 | 0.00 | 100 | 1014.7 |
| 20260510072606 | 5 | 0 | 0.0 | 0.0 | 0.00 | 0.00 | 0.00 | 100 | 1014.7 |
| 20260510072106 | 5 | 224 | 1.6 | 1.6 | 0.00 | 0.00 | 0.00 | 100 | 1014.6 |
| 20260510071606 | 5 | 282 | 0.0 | 1.6 | 0.00 | 0.00 | 0.00 | 100 | 1014.6 |
| 20260510071107 | 5 | 8 | 1.6 | 1.6 | 0.00 | 0.00 | 0.00 | 100 | 1014.6 |
| 20260510070607 | 5 | 144 | 0.0 | 1.6 | 0.00 | 0.00 | 0.00 | 99 | 1014.6 |
| 20260510070106 | 5 | 114 | 0.0 | 0.0 | 0.00 | 0.00 | 0.00 | 99 | 1014.6 |
| 20260510065607 | 5 | 301 | 0.0 | 1.6 | 0.00 | 0.00 | 0.00 | 99 | 1014.6 |
| 20260510065106 | 5 | 0 | 0.0 | 0.0 | 0.00 | 0.00 | 0.00 | 99 | 1014.6 |
| 20260510064607 | 6 | 198 | 0.0 | 0.0 | 0.00 | 0.00 | 0.00 | 99 | 1014.6 |
| 20260510064106 | 6 | 0 | 0.0 | 0.0 | 0.00 | 0.00 | 0.00 | 99 | 1014.6 |
| 20260510063606 | 6 | 313 | 0.0 | 0.0 | 0.00 | 0.00 | 0.00 | 99 | 1014.6 |
| 20260510063106 | 6 | 228 | 0.0 | 0.0 | 0.00 | 0.00 | 0.00 | 99 | 1014.6 |
| 20260510062606 | 6 | 15 | 0.0 | 1.6 | 0.00 | 0.00 | 0.00 | 99 | 1014.6 |
| 20260510062106 | 6 | 19 | 1.6 | 1.6 | 0.00 | 0.00 | 0.00 | 99 | 1014.6 |
| 20260510061607 | 6 | 241 | 0.0 | 1.6 | 0.00 | 0.00 | 0.00 | 98 | 1014.6 |
| 20260510061107 | 6 | 0 | 0.0 | 0.0 | 0.00 | 0.00 | 0.00 | 99 | 1014.5 |
| 20260510060607 | 6 | 204 | 1.6 | 1.6 | 0.00 | 0.00 | 0.00 | 99 | 1014.6 |
| 20260510060106 | 6 | 300 | 0.0 | 1.6 | 0.00 | 0.00 | 0.00 | 98 | 1014.7 |
| 20260510055606 | 6 | 339 | 0.0 | 1.6 | 0.00 | 0.00 | 0.00 | 98 | 1014.6 |
| 20260510055106 | 6 | 12 | 1.6 | 1.6 | 0.00 | 0.00 | 0.00 | 98 | 1014.6 |
| 20260510054607 | 6 | 230 | 0.0 | 1.6 | 0.00 | 0.00 | 0.00 | 99 | 1014.6 |
| 20260510054106 | 6 | 218 | 0.0 | 1.6 | 0.00 | 0.00 | 0.00 | 98 | 1014.5 |
| 20260510053606 | 6 | 0 | 0.0 | 0.0 | 0.00 | 0.00 | 0.00 | 98 | 1014.6 |
| 20260510053106 | 6 | 295 | 0.0 | 0.0 | 0.00 | 0.00 | 0.00 | 98 | 1014.6 |
| 20260510052606 | 7 | 332 | 0.0 | 1.6 | 0.00 | 0.00 | 0.00 | 98 | 1014.6 |
| 20260510052107 | 7 | 301 | 0.0 | 1.6 | 0.00 | 0.00 | 0.00 | 98 | 1014.6 |
| 20260510051607 | 7 | 316 | 0.0 | 1.6 | 0.00 | 0.00 | 0.00 | 98 | 1014.6 |
| 20260510051106 | 7 | 272 | 0.0 | 0.0 | 0.00 | 0.00 | 0.00 | 97 | 1014.6 |
| 20260510050606 | 7 | 0 | 0.0 | 0.0 | 0.00 | 0.00 | 0.00 | 97 | 1014.7 |
| 20260510050107 | 7 | 34 | 0.0 | 1.6 | 0.00 | 0.00 | 0.00 | 97 | 1014.6 |
| 20260510045607 | 7 | 301 | 0.0 | 0.0 | 0.00 | 0.00 | 0.00 | 97 | 1014.6 |
| 20260510045106 | 7 | 198 | 0.0 | 0.0 | 0.00 | 0.00 | 0.00 | 98 | 1014.6 |
| 20260510044606 | 7 | 0 | 0.0 | 0.0 | 0.00 | 0.00 | 0.00 | 97 | 1014.6 |
| 20260510044106 | 7 | 278 | 0.0 | 1.6 | 0.00 | 0.00 | 0.00 | 97 | 1014.7 |
| 20260510043606 | 7 | 351 | 0.0 | 1.6 | 0.00 | 0.00 | 0.00 | 97 | 1014.6 |
| 20260510043106 | 8 | 15 | 0.0 | 0.0 | 0.00 | 0.00 | 0.00 | 97 | 1014.6 |
| 20260510042606 | 8 | 218 | 0.0 | 1.6 | 0.00 | 0.00 | 0.00 | 97 | 1014.5 |
| 20260510042107 | 8 | 24 | 0.0 | 1.6 | 0.00 | 0.00 | 0.00 | 97 | 1014.4 |
| 20260510041607 | 8 | 286 | 0.0 | 1.6 | 0.00 | 0.00 | 0.00 | 96 | 1014.5 |
| 20260510041106 | 8 | 0 | 0.0 | 0.0 | 0.00 | 0.00 | 0.00 | 96 | 1014.5 |
| 20260510040606 | 8 | 0 | 0.0 | 0.0 | 0.00 | 0.00 | 0.00 | 96 | 1014.5 |
| 20260510040107 | 8 | 342 | 0.0 | 1.6 | 0.00 | 0.00 | 0.00 | 96 | 1014.6 |
| 20260510035607 | 8 | 0 | 0.0 | 0.0 | 0.00 | 0.00 | 0.00 | 96 | 1014.6 |
| 20260510035109 | 8 | 200 | 0.0 | 0.0 | 0.00 | 0.00 | 0.00 | 95 | 1014.4 |
| 20260510034606 | 8 | 290 | 0.0 | 0.0 | 0.00 | 0.00 | 0.00 | 95 | 1014.4 |
| 20260510034108 | 8 | 301 | 0.0 | 0.0 | 0.00 | 0.00 | 0.00 | 95 | 1014.5 |
| 20260510033606 | 8 | 239 | 0.0 | 1.6 | 0.00 | 0.00 | 0.00 | 95 | 1014.5 |
| 20260510033112 | 8 | 237 | 0.0 | 1.6 | 0.00 | 0.00 | 0.00 | 95 | 1014.4 |
| 20260510032606 | 9 | 325 | 0.0 | 3.2 | 0.00 | 0.00 | 0.00 | 94 | 1014.4 |
| 20260510032106 | 9 | 349 | 0.0 | 1.6 | 0.00 | 0.00 | 0.00 | 94 | 1014.4 |
| 20260510031608 | 9 | 0 | 0.0 | 0.0 | 0.00 | 0.00 | 0.00 | 94 | 1014.4 |
| 20260510031106 | 9 | 213 | 1.6 | 1.6 | 0.00 | 0.00 | 0.00 | 93 | 1014.3 |
| 20260510030606 | 9 | 2 | 0.0 | 1.6 | 0.00 | 0.00 | 0.00 | 93 | 1014.4 |
| 20260510030107 | 9 | 0 | 0.0 | 0.0 | 0.00 | 0.00 | 0.00 | 93 | 1014.4 |
| 20260510025606 | 10 | 0 | 0.0 | 0.0 | 0.00 | 0.00 | 0.00 | 92 | 1014.3 |
| 20260510025107 | 10 | 0 | 0.0 | 0.0 | 0.00 | 0.00 | 0.00 | 91 | 1014.4 |
| 20260510024607 | 10 | 270 | 0.0 | 0.0 | 0.00 | 0.00 | 0.00 | 91 | 1014.4 |
| 20260510024106 | 10 | 339 | 0.0 | 0.0 | 0.00 | 0.00 | 0.00 | 91 | 1014.4 |
| 20260510023608 | 10 | 250 | 0.0 | 1.6 | 0.00 | 0.00 | 0.00 | 92 | 1014.5 |
| 20260510023107 | 10 | 241 | 0.0 | 0.0 | 0.00 | 0.00 | 0.00 | 91 | 1014.5 |
| 20260510022607 | 10 | 0 | 0.0 | 0.0 | 0.00 | 0.00 | 0.00 | 90 | 1014.4 |
| 20260510022107 | 10 | 275 | 0.0 | 1.6 | 0.00 | 0.00 | 0.00 | 89 | 1014.3 |
| 20260510021606 | 10 | 333 | 0.0 | 1.6 | 0.00 | 0.00 | 0.00 | 89 | 1014.2 |
| 20260510021106 | 10 | 310 | 0.0 | 0.0 | 0.00 | 0.00 | 0.00 | 89 | 1014.1 |
| 20260510020607 | 10 | 313 | 0.0 | 0.0 | 0.00 | 0.00 | 0.00 | 89 | 1014.1 |
| 20260510020107 | 11 | 303 | 0.0 | 0.0 | 0.00 | 0.00 | 0.00 | 88 | 1014.1 |
| 20260510015606 | 11 | 0 | 0.0 | 0.0 | 0.00 | 0.00 | 0.00 | 87 | 1013.9 |
| 20260510015107 | 11 | 0 | 0.0 | 0.0 | 0.00 | 0.00 | 0.00 | 86 | 1013.7 |
| 20260510014606 | 11 | 302 | 0.0 | 0.0 | 0.00 | 0.00 | 0.00 | 85 | 1013.7 |
| 20260510014106 | 11 | 355 | 0.0 | 1.6 | 0.00 | 0.00 | 0.00 | 85 | 1013.6 |
| 20260510013607 | 11 | 345 | 0.0 | 0.0 | 0.00 | 0.00 | 0.00 | 83 | 1013.5 |
| 20260510013106 | 11 | 312 | 1.6 | 1.6 | 0.00 | 0.00 | 0.00 | 83 | 1013.4 |
| 20260510012606 | 12 | 246 | 0.0 | 1.6 | 0.00 | 0.00 | 0.00 | 83 | 1013.3 |
| 20260510012108 | 12 | 270 | 0.0 | 1.6 | 0.00 | 0.00 | 0.00 | 81 | 1013.3 |
| 20260510011607 | 12 | 250 | 0.0 | 0.0 | 0.00 | 0.00 | 0.00 | 79 | 1013.2 |
| 20260510011106 | 12 | 0 | 0.0 | 0.0 | 0.00 | 0.00 | 0.00 | 79 | 1013.0 |
| 20260510010607 | 13 | 287 | 0.0 | 1.6 | 0.00 | 0.00 | 0.00 | 78 | 1012.9 |
| 20260510010107 | 13 | 0 | 0.0 | 0.0 | 0.00 | 0.00 | 0.00 | 78 | 1012.8 |
| 20260510005606 | 13 | 50 | 0.0 | 0.0 | 0.00 | 0.00 | 0.00 | 76 | 1012.8 |
| 20260510005107 | 13 | 284 | 0.0 | 0.0 | 0.00 | 0.00 | 0.00 | 74 | 1012.8 |
| 20260510004606 | 14 | 0 | 0.0 | 0.0 | 0.00 | 0.00 | 0.00 | 74 | 1012.6 |
| 20260510004106 | 15 | 268 | 0.0 | 1.6 | 0.00 | 0.00 | 0.00 | 73 | 1012.7 |
| 20260510003606 | 15 | 0 | 0.0 | 0.0 | 0.00 | 0.00 | 0.00 | 71 | 1012.6 |
| 20260510003106 | 15 | 235 | 0.0 | 0.0 | 0.00 | 0.00 | 0.00 | 69 | 1012.6 |
| 20260510002606 | 15 | 0 | 0.0 | 0.0 | 0.00 | 0.00 | 0.00 | 69 | 1012.5 |
| 20260510002106 | 16 | 10 | 0.0 | 1.6 | 0.00 | 0.00 | 0.00 | 67 | 1012.5 |
| 20260510001607 | 16 | 339 | 1.6 | 1.6 | 0.00 | 0.00 | 0.00 | 65 | 1012.5 |
| 20260510001108 | 17 | 313 | 1.6 | 1.6 | 0.00 | 0.00 | 0.00 | 64 | 1012.5 |
| 20260510000607 | 17 | 337 | 3.2 | 3.2 | 0.00 | 0.00 | 0.00 | 62 | 1012.5 |
| 20260510000106 | 17 | 317 | 1.6 | 3.2 | 0.00 | 0.00 | 0.00 | 61 | 1012.3 |
| 20260509235606 | 17 | 311 | 1.6 | 3.2 | 0.00 | 0.00 | 0.00 | 59 | 1012.2 |
| 20260509235108 | 18 | 324 | 3.2 | 6.4 | 0.00 | 0.00 | 0.00 | 58 | 1012.2 |
| 20260509234609 | 18 | 294 | 4.8 | 6.4 | 0.00 | 0.00 | 0.00 | 56 | 1012.1 |
| 20260509233618 | 18 | 341 | 3.2 | 4.8 | 0.00 | 0.00 | 0.00 | 55 | 1011.9 |
| 20260509233106 | 18 | 321 | 4.8 | 6.4 | 0.00 | 0.00 | 0.00 | 55 | 1011.8 |
| 20260509232606 | 18 | 319 | 4.8 | 6.4 | 0.00 | 0.00 | 0.00 | 55 | 1011.8 |
| 20260509232106 | 18 | 289 | 4.8 | 6.4 | 0.00 | 0.00 | 0.00 | 55 | 1011.8 |
| 20260509231606 | 18 | 308 | 6.4 | 9.7 | 0.00 | 0.00 | 0.00 | 54 | 1011.8 |
| 20260509231106 | 19 | 332 | 4.8 | 11.3 | 0.00 | 0.00 | 0.00 | 54 | 1011.7 |
| 20260509230607 | 19 | 300 | 6.4 | 9.7 | 0.00 | 0.00 | 0.00 | 53 | 1011.7 |
| 20260509230106 | 19 | 303 | 3.2 | 6.4 | 0.00 | 0.00 | 0.00 | 53 | 1011.7 |
| 20260509225606 | 18 | 338 | 4.8 | 8.0 | 0.00 | 0.00 | 0.00 | 53 | 1011.7 |
| 20260509225107 | 19 | 296 | 9.7 | 12.9 | 0.00 | 0.00 | 0.00 | 53 | 1011.8 |
| 20260509224606 | 19 | 321 | 8.0 | 11.3 | 0.00 | 0.00 | 0.00 | 53 | 1011.7 |
| 20260509224106 | 19 | 322 | 9.7 | 11.3 | 0.00 | 0.00 | 0.00 | 52 | 1011.7 |
| 20260509223607 | 19 | 287 | 6.4 | 9.7 | 0.00 | 0.00 | 0.00 | 53 | 1011.8 |
| 20260509223106 | 20 | 282 | 8.0 | 12.9 | 0.00 | 0.00 | 0.00 | 52 | 1011.7 |
| 20260509222606 | 19 | 308 | 3.2 | 8.0 | 0.00 | 0.00 | 0.00 | 55 | 1011.8 |
| 20260509222108 | 19 | 298 | 4.8 | 6.4 | 0.00 | 0.00 | 0.00 | 54 | 1011.8 |
| 20260509221606 | 18 | 282 | 4.8 | 6.4 | 0.00 | 0.00 | 0.00 | 55 | 1011.9 |
| 20260509221106 | 18 | 334 | 6.4 | 9.7 | 0.00 | 0.00 | 0.00 | 55 | 1011.8 |
| 20260509220606 | 18 | 328 | 4.8 | 8.0 | 0.00 | 0.00 | 0.00 | 55 | 1011.9 |
| 20260509220106 | 18 | 303 | 9.7 | 19.3 | 0.00 | 0.00 | 0.00 | 55 | 1011.9 |
| 20260509215607 | 18 | 328 | 6.4 | 8.0 | 0.00 | 0.00 | 0.00 | 55 | 1011.9 |
| 20260509215106 | 18 | 270 | 9.7 | 12.9 | 0.00 | 0.00 | 0.00 | 55 | 1011.9 |
| 20260509214606 | 18 | 307 | 11.3 | 16.1 | 0.00 | 0.00 | 0.00 | 56 | 1011.8 |
| 20260509214107 | 18 | 280 | 9.7 | 12.9 | 0.00 | 0.00 | 0.00 | 55 | 1011.9 |
| 20260509213607 | 18 | 307 | 9.7 | 12.9 | 0.00 | 0.00 | 0.00 | 56 | 1011.8 |
| 20260509213106 | 18 | 324 | 8.0 | 14.5 | 0.00 | 0.00 | 0.00 | 56 | 1011.9 |
| 20260509212606 | 19 | 282 | 6.4 | 12.9 | 0.00 | 0.00 | 0.00 | 56 | 1011.8 |
| 20260509212107 | 19 | 349 | 8.0 | 11.3 | 0.00 | 0.00 | 0.00 | 55 | 1011.7 |
| 20260509211606 | 18 | 290 | 4.8 | 8.0 | 0.00 | 0.00 | 0.00 | 57 | 1011.8 |
| 20260509211106 | 18 | 278 | 3.2 | 6.4 | 0.00 | 0.00 | 0.00 | 56 | 1011.7 |
| 20260509210607 | 19 | 335 | 6.4 | 9.7 | 0.00 | 0.00 | 0.00 | 55 | 1011.6 |
| 20260509210107 | 19 | 321 | 4.8 | 8.0 | 0.00 | 0.00 | 0.00 | 54 | 1011.5 |
| 20260509205606 | 18 | 237 | 9.7 | 16.1 | 0.00 | 0.00 | 0.00 | 55 | 1011.6 |
| 20260509205107 | 18 | 299 | 8.0 | 12.9 | 0.00 | 0.00 | 0.00 | 55 | 1011.7 |
| 20260509204606 | 18 | 324 | 4.8 | 9.7 | 0.00 | 0.00 | 0.00 | 56 | 1011.6 |
| 20260509204108 | 18 | 280 | 4.8 | 12.9 | 0.00 | 0.00 | 0.00 | 55 | 1011.6 |
| 20260509203607 | 18 | 301 | 4.8 | 6.4 | 0.00 | 0.00 | 0.00 | 55 | 1011.6 |
| 20260509203107 | 18 | 320 | 8.0 | 11.3 | 0.00 | 0.00 | 0.00 | 54 | 1011.6 |
| 20260509202606 | 18 | 300 | 6.4 | 8.0 | 0.00 | 0.00 | 0.00 | 56 | 1011.6 |
| 20260509202107 | 18 | 306 | 8.0 | 12.9 | 0.00 | 0.00 | 0.00 | 54 | 1011.5 |
| 20260509201607 | 18 | 288 | 6.4 | 12.9 | 0.00 | 0.00 | 0.00 | 56 | 1011.5 |
| 20260509201106 | 18 | 278 | 8.0 | 14.5 | 0.00 | 0.00 | 0.00 | 56 | 1011.3 |
| 20260509200606 | 18 | 244 | 6.4 | 16.1 | 0.00 | 0.00 | 0.00 | 56 | 1011.3 |
| 20260509200106 | 18 | 300 | 8.0 | 9.7 | 0.00 | 0.00 | 0.00 | 56 | 1011.2 |
| 20260509195606 | 18 | 231 | 4.8 | 9.7 | 0.00 | 0.00 | 0.00 | 56 | 1011.4 |
| 20260509195106 | 18 | 259 | 8.0 | 12.9 | 0.00 | 0.00 | 0.00 | 55 | 1011.3 |
| 20260509194607 | 18 | 245 | 6.4 | 9.7 | 0.00 | 0.00 | 0.00 | 55 | 1011.3 |
| 20260509194106 | 18 | 283 | 9.7 | 12.9 | 0.00 | 0.00 | 0.00 | 55 | 1011.3 |
| 20260509193606 | 18 | 295 | 8.0 | 12.9 | 0.00 | 0.00 | 0.00 | 54 | 1011.3 |
| 20260509193107 | 18 | 326 | 6.4 | 11.3 | 0.00 | 0.00 | 0.00 | 56 | 1011.3 |
| 20260509192606 | 18 | 275 | 6.4 | 11.3 | 0.00 | 0.00 | 0.00 | 54 | 1011.3 |
| 20260509192107 | 18 | 269 | 4.8 | 9.7 | 0.00 | 0.00 | 0.00 | 55 | 1011.4 |
| 20260509191607 | 18 | 262 | 4.8 | 6.4 | 0.00 | 0.00 | 0.00 | 56 | 1011.4 |
| 20260509191106 | 18 | 275 | 4.8 | 8.0 | 0.00 | 0.00 | 0.00 | 56 | 1011.5 |
| 20260509190607 | 18 | 262 | 6.4 | 11.3 | 0.00 | 0.00 | 0.00 | 53 | 1011.4 |
| 20260509190106 | 18 | 284 | 11.3 | 14.5 | 0.00 | 0.00 | 0.00 | 54 | 1011.4 |
| 20260509185606 | 18 | 297 | 9.7 | 16.1 | 0.00 | 0.00 | 0.00 | 55 | 1011.3 |
| 20260509185106 | 18 | 283 | 6.4 | 9.7 | 0.00 | 0.00 | 0.00 | 55 | 1011.3 |
| 20260509184606 | 18 | 279 | 3.2 | 6.4 | 0.00 | 0.00 | 0.00 | 54 | 1011.4 |
| 20260509184107 | 18 | 294 | 4.8 | 6.4 | 0.00 | 0.00 | 0.00 | 55 | 1011.4 |
| 20260509183606 | 18 | 301 | 11.3 | 16.1 | 0.00 | 0.00 | 0.00 | 53 | 1011.4 |
| 20260509183107 | 18 | 291 | 8.0 | 19.3 | 0.00 | 0.00 | 0.00 | 53 | 1011.5 |
| 20260509182607 | 18 | 273 | 8.0 | 14.5 | 0.00 | 0.00 | 0.00 | 54 | 1011.5 |
| 20260509182106 | 18 | 263 | 4.8 | 6.4 | 0.00 | 0.00 | 0.00 | 57 | 1011.5 |
| 20260509181606 | 17 | 270 | 9.7 | 14.5 | 0.00 | 0.00 | 0.00 | 55 | 1011.5 |
| 20260509181106 | 17 | 304 | 8.0 | 12.9 | 0.00 | 0.00 | 0.00 | 56 | 1011.5 |
| 20260509180607 | 17 | 289 | 12.9 | 17.7 | 0.00 | 0.00 | 0.00 | 56 | 1011.4 |
| 20260509180106 | 17 | 302 | 9.7 | 16.1 | 0.00 | 0.00 | 0.00 | 54 | 1011.5 |
| 20260509175606 | 17 | 261 | 9.7 | 12.9 | 0.00 | 0.00 | 0.00 | 56 | 1011.5 |
| 20260509175109 | 17 | 300 | 4.8 | 6.4 | 0.00 | 0.00 | 0.00 | 57 | 1011.5 |